sat.trackr.live / text

‹ back to catalog

STARLINK-4799

NORAD 53860 · 2022-114AU

PAYLOAD ACTIVE UNKNOWN

§ Identity

Operator
Country
US
Launch date
2022-09-19
Launch site
AFETR
Launch vehicle
Mass (kg)
RCS (m²)

Purposes: comms

External: N2YO · Heavens-Above · Gunter

§ Orbital elements

Epoch: 2026-09-20T22:16:31.882656Z

Period
94.01 min
Inclination
53.1591°
Eccentricity
0.0001302
Mean motion
15.31700285 rev/d
Perigee alt
469.8 km
Apogee alt
471.6 km
Semi-major
6,848.9 km
B*
1.9490e-5
RAAN
116.6693°
Arg perigee
85.4164°
Mean anomaly
274.6987°
Rev number
22,249

§ Raw data

STARLINK-47991 53860U 22114AU  26263.92814679  .00000240  00000+0  19490-4 0  99992 53860  53.1591 116.6693 0001302  85.4164 274.6987 15.31700285222498

JSON: /api/v1/satellites/53860 · /tle

For live sub-satellite position, see the globe view (requires WebGL).

§ Visibility from observer

Set your observer location to see the next 7 days of passes ≥ 10°. The values pass through the URL so the page stays shareable.

No JS? Fill the form by hand. The geolocation button needs JavaScript.